TimeCET,TemperatureF,Dew PointF,Humidity,Sea Level PressureIn,VisibilityMPH,Wind Direction,Wind SpeedMPH,Gust SpeedMPH,PrecipitationIn,Events,Conditions,WindDirDegrees,DateUTC
1:00 AM,49,37,52,30.43,,NNW,13.8,,,,,330,2012-12-31 00:00:00
5:00 AM,48.2,37.4,66,30.36,-9999.0,NW,13.8,-,N/A,,Clear,320,2012-12-31 04:00:00
5:30 AM,48.2,37.4,66,30.36,-9999.0,NW,13.8,-,N/A,,Clear,320,2012-12-31 04:30:00
6:00 AM,48.2,37.4,66,30.36,-9999.0,NW,12.7,-,N/A,,Clear,320,2012-12-31 05:00:00
6:30 AM,50.0,37.4,62,30.36,-9999.0,NNW,9.2,-,N/A,,Clear,330,2012-12-31 05:30:00
7:00 AM,46,35,55,30.38,31,NW,13.8,,,,,320,2012-12-31 06:00:00
7:00 AM,46.4,35.6,66,30.36,-9999.0,NW,12.7,-,N/A,,Clear,320,2012-12-31 06:00:00
7:30 AM,46.4,37.4,71,30.36,-9999.0,NW,11.5,-,N/A,,Clear,320,2012-12-31 06:30:00
8:00 AM,46.4,35.6,66,30.36,-9999.0,NNW,11.5,-,N/A,,Clear,330,2012-12-31 07:00:00
8:30 AM,46.4,35.6,66,30.36,-9999.0,NNW,12.7,-,N/A,,Clear,330,2012-12-31 07:30:00
9:00 AM,48.2,35.6,62,30.36,-9999.0,NW,11.5,-,N/A,,Clear,320,2012-12-31 08:00:00
9:30 AM,50.0,37.4,62,30.36,-9999.0,NW,11.5,-,N/A,,Clear,320,2012-12-31 08:30:00
10:00 AM,53.6,37.4,54,30.36,6.2,NW,9.2,-,N/A,,Partly Cloudy,320,2012-12-31 09:00:00
10:30 AM,55.4,37.4,51,30.36,6.2,NNW,9.2,-,N/A,,Partly Cloudy,330,2012-12-31 09:30:00
12:00 PM,59.0,44.6,59,30.36,6.2,Variable,1.2,-,N/A,,Partly Cloudy,0,2012-12-31 11:00:00
12:30 PM,60.8,44.6,55,30.33,6.2,Variable,1.2,-,N/A,,Partly Cloudy,0,2012-12-31 11:30:00
1:00 PM,60,44,45,30.34,28,South,2.3,,,,Scattered Clouds,190,2012-12-31 12:00:00
1:00 PM,60.8,46.4,59,30.33,6.2,Variable,1.2,-,N/A,,Partly Cloudy,0,2012-12-31 12:00:00
1:30 PM,60.8,46.4,59,30.30,6.2,Variable,1.2,-,N/A,,Partly Cloudy,0,2012-12-31 12:30:00
2:00 PM,59.0,48.2,67,30.30,6.2,Variable,2.3,-,N/A,,Partly Cloudy,0,2012-12-31 13:00:00
2:30 PM,59.0,48.2,67,30.27,6.2,Variable,2.3,-,N/A,,Partly Cloudy,0,2012-12-31 13:30:00
3:00 PM,59.0,48.2,67,30.27,6.2,South,3.5,-,N/A,,Partly Cloudy,190,2012-12-31 14:00:00
3:30 PM,59.0,48.2,67,30.24,6.2,South,3.5,-,N/A,,Partly Cloudy,190,2012-12-31 14:30:00
4:00 PM,59.0,50.0,72,30.24,6.2,South,4.6,-,N/A,,Partly Cloudy,170,2012-12-31 15:00:00
5:00 PM,59.0,50.0,72,30.24,6.2,South,3.5,-,N/A,,Partly Cloudy,180,2012-12-31 16:00:00
5:30 PM,57.2,50.0,77,30.21,6.2,South,3.5,-,N/A,,Partly Cloudy,180,2012-12-31 16:30:00
6:00 PM,57.2,50.0,77,30.21,6.2,SSW,3.5,-,N/A,,Partly Cloudy,200,2012-12-31 17:00:00
6:30 PM,57.2,51.8,82,30.21,6.2,SSW,3.5,-,N/A,,Partly Cloudy,200,2012-12-31 17:30:00
7:00 PM,54,49,77,30.22,25,SW,2.3,,,,Scattered Clouds,230,2012-12-31 18:00:00
7:00 PM,55.4,50.0,82,30.21,6.2,Variable,2.3,-,N/A,,Partly Cloudy,0,2012-12-31 18:00:00
7:30 PM,53.6,50.0,88,30.21,6.2,Calm,Calm,-,N/A,,Partly Cloudy,0,2012-12-31 18:30:00
8:00 PM,53.6,50.0,88,30.18,6.2,Calm,Calm,-,N/A,,Partly Cloudy,0,2012-12-31 19:00:00
8:30 PM,53.6,50.0,88,30.18,6.2,Variable,1.2,-,N/A,,Partly Cloudy,0,2012-12-31 19:30:00
9:00 PM,51.8,48.2,88,30.18,6.2,Variable,1.2,-,N/A,,Partly Cloudy,0,2012-12-31 20:00:00
9:30 PM,51.8,48.2,88,30.18,6.2,Variable,2.3,-,N/A,,Partly Cloudy,0,2012-12-31 20:30:00
10:00 PM,51.8,48.2,88,30.18,6.2,NW,4.6,-,N/A,,Partly Cloudy,320,2012-12-31 21:00:00
10:30 PM,50.0,48.2,94,30.18,6.2,NW,3.5,-,N/A,,Partly Cloudy,310,2012-12-31 21:30:00